Fort Campbell, KY

3:14 PM CDT on September 25, 2016 (GMT -0500)
Campbell Army Air Field

Weather History for KHOP - September, 2013

Change the Weather History Date:

Thursday, September 12, 2013

  Actual Average Record
Temperature  
Mean Temperature 78 °F -  
Max Temperature 86 °F 81 °F 93 °F (1999)
Min Temperature 70 °F 59 °F 53 °F (1996)
Cooling Degree Days 13    
Growing Degree Days 28 (Base 50)    
Moisture  
Dew Point 72 °F    
Average Humidity 85    
Maximum Humidity 100    
Minimum Humidity 63    
Precipitation  
Precipitation 0.34 in - - ()
Sea Level Pressure  
Sea Level Pressure 29.99 in    
Wind  
Wind Speed 7 mph (West)    
Max Wind Speed 30 mph    
Max Gust Speed 43 mph    
Visibility 8 miles    
Events Rain , Thunderstorm    
Averages and records for this station are not official NWS values.
T = Trace of Precipitation, MM = Missing Value Source: NWS Daily Summary

Daily Weather History Graph

Daily Weather History Graph

Search for Another Location

Airport or City:

Trip Planner

Search our weather history database for the weather conditions in past years. The results will help you decide how hot, cold, wet, or windy it might be!

Date:

Astronomy

Sep. 12, 2013 Rise Set
Actual Time 6:30 AM CDT 7:01 PM CDT
Civil Twilight 6:04 AM CDT 7:27 PM CDT
Nautical Twilight 5:33 AM CDT 7:58 PM CDT
Astronomical Twilight 5:02 AM CDT 8:29 PM CDT
Moon 1:47 PM CDT (9/12) No Moon Set
Length of Visible Light 13h 23m
Length of Day
12h 31m
Waxing Crescent, 50% of the Moon is Illuminated
Sep 12
Waxing Crescent
Sep 12
First Quarter
Sep 19
Full
Sep 26
Last Quarter
Oct 4
New

Hourly Weather History & Observations

Time (CDT) Temp. Heat Index Dew Point Humidity Pressure Visibility Wind Dir Wind Speed Gust Speed Precip Events Conditions
12:58 AM 71.2 °F - 71.2 °F 100% 30.06 in 10.0 mi Calm Calm - N/A   Clear
1:58 AM 70.5 °F - 70.5 °F 100% 30.06 in 10.0 mi Calm Calm - N/A   Mostly Cloudy
2:58 AM 71.6 °F - 71.6 °F 100% 30.06 in 10.0 mi ESE 2.3 mph - N/A   Mostly Cloudy
3:58 AM 72.1 °F - 72.1 °F 100% 30.06 in 10.0 mi SSW 2.3 mph - N/A   Mostly Cloudy
4:58 AM 72.3 °F - 72.3 °F 100% 30.04 in 10.0 mi SSW 2.3 mph - N/A   Overcast
5:58 AM 71.6 °F - 71.6 °F 100% 30.04 in 9.0 mi SW 3.5 mph - N/A   Scattered Clouds
6:58 AM 73.0 °F - 73.0 °F 100% 30.06 in 8.0 mi SSW 2.3 mph - N/A   Scattered Clouds
7:58 AM 75.0 °F - 75.0 °F 100% 30.06 in 10.0 mi SW 5.8 mph - N/A   Mostly Cloudy
8:58 AM 77.2 °F - 76.1 °F 96% 30.06 in 10.0 mi West 6.9 mph - N/A   Partly Cloudy
9:58 AM 81.3 °F 86.8 °F 73.9 °F 78% 30.05 in 10.0 mi WSW 9.2 mph - N/A   Partly Cloudy
10:58 AM 84.6 °F 93.2 °F 75.4 °F 74% 30.04 in 10.0 mi West 9.2 mph - N/A   Clear
11:32 AM 84.2 °F 90.9 °F 73.4 °F 70% 30.05 in 10.0 mi WNW 9.2 mph - N/A   Mostly Cloudy
11:39 AM 82.4 °F 88.2 °F 73.4 °F 74% 30.05 in 10.0 mi West 10.4 mph - N/A   Mostly Cloudy
11:58 AM 85.5 °F 93.0 °F 73.9 °F 68% 30.03 in 10.0 mi West 10.4 mph - N/A   Partly Cloudy
12:58 PM 84.7 °F 91.7 °F 73.6 °F 69% 30.01 in 10.0 mi WNW 10.4 mph - N/A   Partly Cloudy
1:58 PM 86.0 °F 93.0 °F 72.9 °F 65% 29.98 in 10.0 mi WNW 9.2 mph - N/A   Clear
2:58 PM 85.8 °F 91.8 °F 72.0 °F 63% 29.96 in 10.0 mi NW 10.4 mph - N/A   Clear
3:58 PM 81.0 °F 86.0 °F 73.4 °F 78% 29.95 in 10.0 mi SW 12.7 mph - N/A   Scattered Clouds
4:58 PM 83.5 °F 88.8 °F 71.8 °F 68% 29.93 in 10.0 mi SW 8.1 mph - N/A   Clear
5:37 PM 84.2 °F 90.9 °F 73.4 °F 70% 29.94 in 10.0 mi WSW 8.1 mph - N/A Thunderstorm Thunderstorm
5:47 PM 84.2 °F 89.6 °F 71.6 °F 66% 29.95 in 10.0 mi North 18.4 mph 27.6 mph N/A Thunderstorm Thunderstorm
5:48 PM 82.4 °F 86.3 °F 69.8 °F 66% 29.95 in 10.0 mi North 23.0 mph 35.7 mph N/A Rain , Thunderstorm Light Thunderstorms and Rain
5:51 PM 80.6 °F 83.2 °F 68.0 °F 65% 29.94 in 3.0 mi NNE 29.9 mph 35.7 mph N/A Rain , Thunderstorm Light Thunderstorms and Rain
5:52 PM 78.8 °F - 68.0 °F 69% 29.93 in 2.0 mi NE 27.6 mph 42.6 mph N/A Rain , Thunderstorm Heavy Thunderstorms and Rain
5:53 PM 77.0 °F - 68.0 °F 74% 29.94 in 1.8 mi ENE 20.7 mph 42.6 mph N/A Rain , Thunderstorm Heavy Thunderstorms and Rain
5:54 PM 77.0 °F - 68.0 °F 74% 29.94 in 1.8 mi ENE 16.1 mph 42.6 mph N/A Rain , Thunderstorm Heavy Thunderstorms and Rain
5:58 PM 76.6 °F - 67.3 °F 73% 29.94 in 1.5 mi East 16.1 mph 42.6 mph 0.11 in Rain , Thunderstorm Thunderstorms and Rain
5:59 PM 75.2 °F - 68.0 °F 78% 29.94 in 1.5 mi East 12.7 mph 42.6 mph N/A Rain , Thunderstorm Light Thunderstorms and Rain
6:01 PM 75.2 °F - 69.8 °F 83% 29.94 in 2.5 mi East 10.4 mph 42.6 mph N/A Rain , Thunderstorm Light Thunderstorms and Rain
6:02 PM 75.2 °F - 69.8 °F 83% 29.94 in 4.0 mi ESE 8.1 mph 42.6 mph N/A Rain , Thunderstorm Light Thunderstorms and Rain
6:07 PM 77.0 °F - 68.0 °F 74% 29.94 in 10.0 mi Variable 1.2 mph - N/A Thunderstorm Thunderstorm
6:16 PM 77.0 °F - 69.8 °F 78% 29.94 in 8.0 mi West 3.5 mph - N/A Thunderstorm Drizzle
6:34 PM 75.2 °F - 73.4 °F 94% 29.94 in 10.0 mi WNW 4.6 mph - N/A   Mostly Cloudy
6:58 PM 74.3 °F - 73.4 °F 97% 29.93 in 10.0 mi West 2.3 mph - 0.04 in   Clear
7:34 PM 75.2 °F - 75.2 °F 100% 29.96 in 10.0 mi WSW 2.3 mph - N/A   Light Drizzle
7:40 PM 73.4 °F - 73.4 °F 100% 29.95 in 10.0 mi SW 2.3 mph - N/A   Mostly Cloudy
7:58 PM 73.8 °F - 73.8 °F 100% 29.95 in 10.0 mi Variable 3.5 mph - 0.00 in   Mostly Cloudy
8:03 PM 73.4 °F - 73.4 °F 100% 29.98 in 4.0 mi North 12.7 mph 21.9 mph N/A Rain Heavy Rain
8:23 PM 71.6 °F - 71.6 °F 100% 29.97 in 10.0 mi NNW 3.5 mph - N/A   Mostly Cloudy
8:58 PM 72.1 °F - 71.8 °F 99% 29.97 in 10.0 mi North 1.2 mph - 0.19 in   Partly Cloudy
9:58 PM 70.9 °F - 70.9 °F 100% 29.97 in 10.0 mi Calm Calm - N/A   Clear
10:58 PM 72.0 °F - 72.0 °F 100% 29.98 in 10.0 mi NW 4.6 mph - N/A   Clear
11:58 PM 71.2 °F - 71.2 °F 100% 29.98 in 10.0 mi NW 4.6 mph - N/A   Clear